Airfield :
LOGIN :

Register | Disclaimer

   EN    FR    IT 

 










Legend :    VFR   Marginal VFR   IFR   Intensive IFR   Very Intensive IFR
Visi :
Ceiling :
>= 8 km
>= 3000ft
5 to 8 km
1000 to 3000 ft
1500m to 5 km
500 to 1000 ft
800 to 1500m
200 to 500 ft
< 800m
< 200 ft
Symbols :   Thunderstorms  Fog  Heavy snow  Heavy precipitations  Wind > 20 kt
SIGMETs :     Misc.  Thunderstorms  Icing  Turbulence  Mountain Waves  Volcanic Ashes







- Airport Elevation : 1966 ft
- IATA code : SGE


EDGS - Siegerland

CURRENT METAR :
  • 200720Z 25011KT 220V280 4500 BR FEW002 BKN004 01/00 Q1018

EXPIRED METARs :
  • 200650Z 25010KT 4000 BR FEW002 BKN004 01/01 Q1018
  • 200620Z 25011KT 4000 BR FEW002 BKN004 01/01 Q1018

TAF TAF EDGS
Valid from the 20 at 08:00 until the 20 at 15:00 UTC


200720Z 2008/2015 22010KT 9999 BKN007
TEMPO 2008/2012 2500 -SNRA BKN003
BECMG 2012/2015 1800 -SNRA BKN002
No reported NOTAMs for that airfield.



MET'MAP, your aeronautical weather chart ! - Copyright ORBIFLY December 2007 - Disclaimer

ORBIFLY MET'MAP TEAM :

Programming & Development : Alexandra Zaïnal
Concept & Development : Baudouin d'Aumeries
Co-Development & Prog : Marc-Olivier Méhu
Technical & hardware support : Manuel Goepfert

Contact : metmap@orbifly.com




SOURCES & CREDITS :

   NOAA